Location: Launois
(49.6535°N, 4.5395°E)
Time: 03:50:31
(UTC+00:00)

METEOR-M - Pass Details

Date: 23 May 2024
Orbit: 815 x 817 km, 98.6° (Epoch: 21 June)

Event Time Altitude Azimuth Distance (km) Brightness Sun altitude
Rises 03:01:00 0° 16° (NNE) 3,359 8.5 -6.6°
Reaches altitude 10° 03:03:22 10° 18° (NNE) 2,422 7.7 -6.4°
Maximum altitude 03:08:44 72° 103° (ESE) 860 4.4 -5.7°
Drops below altitude 10° 03:14:03 10° 188° (S) 2,405 6.1 -5.1°
Sets 03:16:23 0° 191° (S) 3,332 6.8 -4.8°
